Location: Oberkirch
(48.5323°N, 8.0787°E)
Time: 07:30:46
(UTC+00:00)

Cosmos 2322 Rocket - Pass Details

Date: 08 November 2025
Orbit: 830 x 851 km, 71.0° (Epoch: 12 December)

Event Time Altitude Azimuth Distance (km) Brightness Sun altitude
Exits shadow 02:17:50 21° 44° (NE) 1,818 4.4 -40.6°
Drops below altitude 10° 02:19:43 10° 37° (NE) 2,479 5.2 -40.3°
Sets 02:22:14 0° 32° (NNE) 3,421 6.0 -39.9°
